Date,TemperatureHighF,TemperatureAvgF,TemperatureLowF,DewpointHighF,DewpointAvgF,DewpointLowF,HumidityHigh,HumidityAvg,HumidityLow,PressureMaxIn,PressureMinIn,WindSpeedMaxMPH,WindSpeedAvgMPH,GustSpeedMaxMPH,PrecipitationSumIn
2013-4-6,72.7,67.2,59.2,28.7,24.9,21.7,24,20,16,29.79,29.03,11,4,11,0.00
2013-4-7,76.5,62.7,46.0,61.0,27.7,20.7,90,30,15,29.94,29.12,15,2,15,0.00
2013-4-8,74.3,64.8,54.7,60.8,54.3,49.2,100,71,49,29.82,29.65,18,2,18,0.87
2013-4-9,77.5,70.2,65.1,56.2,53.9,50.8,69,57,47,29.82,29.76,12,3,12,0.00
2013-4-10,68.7,55.1,47.3,56.4,51.5,45.3,100,89,59,29.91,29.65,13,2,13,1.29
2013-4-11,52.3,42.1,38.3,51.8,29.7,20.8,98,63,49,29.74,29.65,13,3,13,0.04
2013-4-12,43.3,39.6,37.0,25.1,22.5,19.7,55,50,46,29.97,29.71,12,4,12,0.00
2013-4-13,57.7,43.0,34.5,24.6,21.1,17.5,58,43,22,30.06,29.88,8,4,10,0.00
2013-4-14,79.7,65.4,48.6,55.9,28.9,22.9,93,29,15,29.88,29.53,15,6,15,0.29
2013-4-15,58.6,54.1,43.7,57.6,46.1,27.8,98,77,43,30.00,29.71,10,1,10,0.04
2013-4-16,50.9,44.9,40.5,38.1,33.1,28.1,88,65,43,30.18,30.00,11,2,11,0.29
2013-4-17,60.4,54.9,47.7,59.6,52.8,46.0,97,93,84,29.97,29.65,13,4,13,2.62
2013-4-18,65.1,52.6,38.3,63.1,45.9,21.3,97,79,50,29.79,29.50,14,4,14,2.20
2013-4-19,47.1,40.7,36.3,22.2,16.5,7.4,52,39,22,30.06,29.74,18,5,18,0.29
2013-4-20,54.5,44.1,28.0,25.9,11.5,6.5,74,28,18,30.30,30.06,9,1,9,0.29
2013-4-21,63.0,53.8,41.2,21.2,17.7,12.8,34,24,18,30.36,30.21,15,6,15,0.29
2013-4-22,70.0,60.9,48.7,24.0,20.0,17.0,28,21,15,30.24,29.97,13,4,13,0.29
2013-4-23,58.8,42.1,38.3,39.1,36.3,24.0,97,84,26,30.06,29.94,9,1,9,0.70
2013-4-24,54.3,44.1,35.4,34.5,19.9,10.0,87,42,18,30.21,30.06,10,2,10,0.70
2013-4-25,65.5,50.6,40.1,26.0,17.4,11.4,55,29,15,30.33,30.18,10,2,10,0.70
2013-4-26,61.0,55.0,50.4,32.8,23.9,12.7,46,30,21,30.30,30.21,13,3,13,0.70
2013-4-27,54.7,51.8,45.3,51.2,45.9,32.0,96,81,46,30.27,29.97,6,0,6,0.70
2013-4-28,66.4,56.5,52.0,51.9,47.2,41.4,98,74,44,29.97,29.85,8,1,8,0.70
2013-4-29,84.6,66.9,48.9,54.7,45.4,33.2,93,52,16,29.88,29.68,14,4,14,0.70
2013-4-30,86.9,74.7,65.5,51.0,38.9,26.9,59,32,13,29.88,29.71,13,3,13,0.00
2013-5-1,84.7,73.1,59.9,38.4,32.2,27.0,41,24,13,30.09,29.88,10,2,10,0.00
2013-5-2,59.9,47.7,38.1,38.2,30.7,25.6,98,55,35,30.21,30.09,14,3,14,0.29
2013-5-3,43.3,39.1,36.9,42.8,38.5,36.1,98,98,97,30.18,29.76,10,1,10,2.24
2013-5-4,48.9,45.6,40.6,47.2,43.4,38.5,98,92,69,30.03,29.76,6,0,6,0.00
2013-5-5,70.7,62.7,47.1,54.9,48.8,42.8,95,63,43,30.03,29.91,10,1,10,0.00
2013-5-6,75.4,65.9,52.7,54.4,39.3,27.8,94,43,18,30.03,29.94,12,1,12,0.00
2013-5-7,80.4,68.1,52.3,51.2,33.7,23.2,85,34,15,30.06,29.97,7,0,7,0.00
2013-5-8,80.1,66.3,51.3,55.1,43.4,25.3,84,51,15,30.03,29.94,10,0,10,0.00
2013-5-9,69.4,63.5,59.5,64.3,59.9,52.0,97,89,64,29.94,29.82,5,0,5,0.25
2013-5-10,61.2,58.3,54.0,60.3,52.8,42.2,97,83,57,30.00,29.82,9,0,9,0.00
2013-5-11,61.9,55.8,44.6,46.6,26.7,7.6,96,42,16,30.18,29.97,15,2,15,0.00
2013-5-12,60.8,52.2,40.1,19.8,13.3,7.4,40,22,16,30.24,30.12,10,1,10,0.00
2013-5-13,72.9,60.1,37.6,42.0,24.5,18.8,85,31,16,30.21,29.97,8,1,8,0.00
2013-5-14,88.9,78.6,59.9,39.2,31.6,24.4,45,19,13,29.97,29.74,10,3,10,0.00
2013-5-15,87.3,79.5,67.3,44.1,36.2,29.8,36,21,18,29.91,29.79,9,2,9,0.00
2013-5-16,83.3,73.0,65.7,64.2,55.7,43.9,92,57,32,29.94,29.82,11,1,11,0.00
2013-5-17,78.8,72.8,59.4,62.1,52.3,43.8,82,50,39,29.97,29.91,9,2,9,0.09
2013-5-18,81.7,73.1,64.4,64.8,57.2,52.9,97,60,40,30.00,29.85,11,1,11,0.00
2013-5-19,89.1,77.7,70.0,67.1,58.5,48.2,78,54,33,29.88,29.65,15,4,15,0.00
2013-5-20,82.4,72.3,62.8,68.2,54.4,36.8,97,57,21,29.85,29.62,13,3,13,1.37
2013-5-21,77.5,71.1,62.4,63.2,51.7,43.5,96,52,36,29.74,29.68,10,1,10,0.79
2013-5-22,71.2,65.8,61.0,57.7,48.2,42.5,86,54,42,29.85,29.68,10,1,10,0.00
2013-5-23,67.6,60.7,55.6,56.0,46.5,41.9,91,60,42,30.24,29.85,10,0,10,0.00
2013-5-24,68.2,59.0,48.9,47.3,34.7,20.1,88,47,17,30.41,30.24,10,0,10,0.00
2013-5-25,65.3,57.7,52.3,53.2,40.5,24.6,97,56,27,30.33,30.15,15,1,15,0.58
2013-5-26,75.0,63.9,53.6,65.7,50.8,40.7,88,64,48,30.18,29.94,10,0,10,0.00
2013-5-27,72.0,67.9,65.7,68.1,63.3,53.8,97,86,53,29.97,29.65,13,0,13,6.07
2013-5-28,76.6,71.3,62.2,71.5,62.8,52.4,97,76,50,29.94,29.71,13,1,13,2.37
2013-5-29,85.8,75.1,62.8,64.8,55.6,42.4,97,57,23,29.94,29.76,14,1,14,0.09
2013-5-30,82.9,72.4,63.3,64.0,54.1,41.7,97,58,24,29.85,29.71,15,3,15,0.95
2013-5-31,71.2,65.0,62.2,69.7,63.2,61.2,97,94,90,29.88,29.68,8,0,8,1.12
2013-6-1,75.2,68.3,62.2,66.1,55.2,40.5,97,66,31,29.91,29.71,11,1,11,1.12
2013-6-2,63.5,60.9,55.6,55.3,44.8,36.6,80,56,45,30.06,29.85,10,0,10,1.12
2013-6-3,69.8,63.0,50.0,49.5,33.7,27.0,85,37,22,30.12,29.97,8,0,8,1.12
2013-6-4,73.6,66.9,54.5,47.4,39.7,32.6,76,39,23,30.09,29.97,9,0,9,1.12
2013-6-5,76.1,70.5,58.8,62.8,51.8,45.7,87,53,41,30.03,29.88,3,0,3,1.12
2013-6-6,73.8,68.8,63.5,64.5,44.3,30.3,93,47,22,29.91,29.85,9,0,9,1.12
2013-6-7,72.9,66.6,58.1,55.7,44.5,30.8,83,47,23,29.94,29.88,8,0,8,1.12
2013-6-8,77.0,70.2,54.7,59.0,41.7,29.6,94,41,18,29.94,29.85,8,0,8,1.12
2013-6-9,73.6,67.4,63.0,65.7,51.6,37.3,97,61,34,29.88,29.76,9,0,9,1.12
2013-6-10,75.9,69.6,63.5,66.5,57.2,51.6,97,68,45,29.88,29.76,8,0,8,1.12
2013-6-11,88.2,78.7,62.8,68.4,60.1,56.0,94,56,35,29.91,29.82,10,0,10,1.12
2013-6-12,93.9,84.9,70.5,66.3,56.6,43.4,83,42,19,29.88,29.68,13,1,13,0.00
2013-6-13,83.5,75.8,66.2,63.2,43.1,28.2,90,35,14,30.00,29.79,10,0,10,0.00
2013-6-14,79.5,71.9,63.0,62.5,53.3,43.8,82,54,30,30.09,29.91,8,0,8,0.00
2013-6-15,89.4,76.5,66.9,72.3,62.8,51.5,96,65,40,30.03,29.88,15,0,15,0.29
2013-6-16,82.0,75.5,68.5,72.6,64.0,59.3,96,70,49,30.00,29.91,7,0,7,0.00
2013-6-17,84.0,77.3,68.2,73.4,62.2,55.9,95,63,39,29.97,29.91,7,0,7,0.00
2013-6-18,83.1,75.9,66.9,65.4,52.1,39.7,93,47,23,30.00,29.91,9,0,9,0.00
2013-6-19,82.9,76.2,63.3,54.6,46.2,36.0,67,37,19,30.09,30.00,3,0,3,0.00
2013-6-20,88.7,81.5,67.1,57.2,49.9,41.9,60,35,20,30.09,30.00,12,0,12,0.00
2013-6-21,91.8,84.9,76.1,61.8,55.6,50.7,54,38,26,30.06,29.91,10,0,10,0.00
2013-6-22,92.7,82.4,73.9,67.0,61.3,50.2,66,50,28,30.03,29.91,10,0,10,0.00
2013-6-23,88.5,74.7,69.4,68.7,60.0,47.3,94,63,30,30.03,29.85,12,0,12,0.84
2013-6-24,90.0,81.2,69.8,68.3,64.1,58.7,84,57,43,30.03,29.85,10,0,10,0.00
2013-6-25,87.6,81.4,76.5,66.3,64.4,62.6,65,57,48,29.91,29.88,7,0,7,0.00
2013-6-26,87.4,87.4,87.4,65.4,65.4,65.4,48,48,48,29.88,29.88,0,0,0,0.00
2013-6-27,87.4,87.4,87.4,65.4,65.4,65.4,48,48,48,29.88,29.88,0,0,0,0.00
2013-6-28,87.4,87.4,87.4,65.4,65.4,65.4,48,48,48,29.88,29.88,0,0,0,0.00
2013-7-3,73.6,71.4,68.2,53.5,50.5,47.6,59,48,40,29.41,29.35,3,0,3,0.00
2013-7-4,84.7,77.1,62.8,59.5,47.4,36.3,83,38,18,30.09,29.38,6,0,6,0.00
2013-7-5,85.1,78.4,65.3,58.1,49.4,39.1,75,39,20,30.06,29.97,8,0,8,0.00
2013-7-6,87.3,79.2,67.3,64.5,57.4,50.8,87,49,30,30.03,29.94,9,0,9,0.00
2013-7-7,90.1,82.1,70.3,58.3,54.0,45.0,62,39,22,30.00,29.94,7,0,7,0.00
2013-7-8,87.1,81.4,73.6,68.1,63.1,54.4,77,54,41,30.03,29.97,5,0,5,0.00
2013-7-9,87.6,82.1,77.4,69.0,64.9,62.6,68,56,47,30.03,29.97,6,0,6,0.00
2013-7-21,73.4,70.4,69.1,71.6,68.6,67.3,95,94,93,29.88,29.82,0,0,0,0.50
2013-7-22,88.2,78.7,67.6,74.2,66.3,58.7,95,69,43,29.88,29.76,6,0,6,0.04
2013-7-23,82.9,76.0,68.2,60.6,55.7,49.9,74,50,38,29.94,29.79,9,0,9,0.00
2013-7-24,76.8,71.8,63.7,53.5,46.2,37.2,66,41,25,30.06,29.94,8,0,8,0.00
2013-7-25,81.9,74.0,58.6,54.9,46.5,37.1,79,40,21,30.12,30.03,5,0,5,0.00
2013-7-26,79.2,71.4,63.5,68.8,57.4,48.7,84,62,47,30.06,29.94,8,0,8,0.25
2013-7-27,71.6,65.7,57.0,54.8,39.6,29.3,80,41,22,30.06,29.97,11,1,11,0.00
2013-7-28,78.6,65.2,51.4,51.1,38.3,25.3,87,44,15,30.06,29.97,8,1,8,0.00
2013-7-29,77.9,69.6,55.2,56.8,48.7,38.7,83,50,25,30.15,30.06,7,0,7,0.00
2013-7-30,79.0,72.9,66.4,69.6,63.4,56.8,94,74,55,30.09,30.00,8,0,8,0.66
2013-7-31,77.2,71.7,66.7,69.8,62.0,56.1,94,73,50,30.06,30.00,9,0,9,0.04
2013-8-1,85.1,76.4,65.5,67.4,53.3,37.7,94,51,19,30.06,29.94,6,0,6,0.00
2013-8-2,83.7,74.6,68.9,65.4,61.4,55.4,88,64,50,29.97,29.91,8,0,8,0.00
2013-8-3,81.5,75.2,66.2,68.1,52.3,38.1,92,49,22,30.15,29.94,9,0,9,0.00
2013-8-4,80.8,71.3,61.9,55.8,52.2,44.8,77,53,30,30.18,30.06,4,0,4,0.00
2013-8-5,78.8,73.1,66.6,65.6,60.2,54.0,82,64,52,30.12,29.85,9,0,9,0.00
2013-8-6,85.6,77.0,68.7,76.1,66.7,63.1,95,73,51,29.91,29.82,8,0,8,0.00
2013-8-7,83.8,76.3,70.3,77.4,69.3,60.7,93,80,56,29.97,29.79,6,0,6,0.34
2013-8-8,79.7,72.7,64.4,62.8,61.1,57.1,87,68,51,30.00,29.94,5,0,5,0.00
2013-8-9,81.3,74.4,68.2,63.9,59.6,55.4,81,61,43,30.09,29.97,8,0,8,0.00
2013-8-10,81.3,73.9,65.3,64.1,50.3,37.0,79,47,21,30.18,30.09,9,0,9,0.00
2013-8-11,85.3,73.8,60.4,59.2,52.9,44.3,84,52,26,30.18,30.03,6,0,6,0.00
2013-8-12,82.0,73.6,66.2,65.6,59.9,54.6,80,63,49,30.09,29.94,8,0,8,0.00
2013-8-13,77.9,69.3,62.4,62.7,52.0,42.0,89,57,34,30.15,29.97,8,0,10,0.00
2013-8-14,74.1,65.3,52.9,50.4,41.1,30.7,83,46,21,30.24,30.12,8,0,8,0.00
2013-8-15,73.9,65.8,58.3,52.0,46.4,37.1,74,52,28,30.18,30.06,8,0,8,0.00
2013-8-29,81.3,80.7,80.2,71.4,70.9,70.3,74,72,70,29.97,29.97,3,0,3,0.00
2013-8-30,99.1,88.3,76.1,72.8,59.1,44.5,88,43,16,29.97,29.79,6,0,6,0.00
2013-8-31,94.8,86.3,76.1,68.1,62.8,54.2,69,47,27,29.82,29.74,8,0,8,0.00
2013-9-1,90.7,79.3,71.2,73.1,60.0,43.1,93,57,20,29.88,29.79,9,0,9,0.00
2013-9-2,81.9,71.8,63.7,57.0,49.0,33.5,78,48,20,30.00,29.88,9,0,9,0.00
2013-9-3,81.1,67.9,56.1,54.1,45.1,33.2,84,48,19,30.12,29.97,6,0,6,0.00
2013-9-4,85.8,71.6,56.3,58.5,43.4,28.1,86,44,13,30.15,30.06,7,0,7,0.00
2013-9-5,89.2,75.1,61.5,58.5,48.8,38.6,79,44,18,30.21,30.12,8,0,8,0.00
2013-9-6,88.7,76.6,64.4,58.9,50.5,39.1,77,44,18,30.18,30.00,7,0,7,0.00
2013-9-7,94.3,79.3,64.2,60.9,52.8,41.2,73,44,17,30.03,29.88,7,0,7,0.00
2013-9-8,81.3,79.5,76.1,67.6,57.6,52.3,74,49,37,29.91,29.88,0,0,0,0.25
2013-9-9,98.2,86.1,74.3,67.2,52.4,37.6,78,38,13,29.94,29.88,8,0,8,0.00
2013-9-10,95.7,82.9,71.6,59.3,50.3,37.7,61,36,14,30.06,29.94,8,0,8,0.00
2013-9-11,91.9,77.3,70.2,56.1,52.1,35.8,60,43,14,30.09,30.00,6,0,7,0.00
2013-9-12,78.1,71.8,70.3,70.1,68.5,55.6,94,90,46,30.09,30.06,6,0,6,0.62
2013-9-13,71.6,71.6,71.6,69.2,69.2,69.2,92,92,92,30.09,30.09,0,0,0,0.62
2013-9-14,71.6,71.6,71.6,69.2,69.2,69.2,92,92,92,30.09,30.09,0,0,0,0.62
2013-9-15,63.3,62.2,61.7,57.7,54.9,53.0,82,77,73,30.18,29.47,9,1,9,0.62
2013-9-16,70.0,62.2,57.7,53.0,48.7,45.7,78,62,44,30.33,30.15,10,1,10,0.62
2013-9-17,66.6,62.7,55.0,58.3,53.1,47.3,81,71,59,30.27,30.06,6,0,6,0.62
2013-9-18,87.6,77.0,63.1,64.0,60.6,54.9,82,58,43,30.06,29.88,10,2,10,0.62
2013-9-19,91.0,80.3,68.7,67.2,60.0,48.1,93,53,24,29.94,29.79,11,1,11,0.71
2013-9-20,71.4,65.7,55.6,68.1,53.1,42.6,95,67,38,29.94,29.88,10,1,10,0.62
2013-9-21,71.4,59.2,52.0,50.5,42.1,29.7,88,57,23,30.00,29.91,10,1,10,0.62
2013-9-22,75.9,60.9,47.5,53.6,40.3,27.4,93,54,18,30.03,29.91,7,0,7,0.62
2013-9-23,75.2,63.1,51.1,47.2,41.7,34.5,77,48,23,30.03,29.91,9,1,9,0.62
2013-9-24,77.9,67.1,55.2,53.4,47.9,38.4,73,51,39,29.94,29.79,9,0,9,0.62
2013-9-25,80.6,68.6,58.5,57.9,53.6,48.0,81,60,43,29.91,29.82,7,0,7,0.62
2013-9-26,83.3,71.6,59.4,58.8,51.0,42.6,81,51,25,30.00,29.88,10,0,10,0.62
2013-9-27,82.0,72.3,62.8,57.5,49.7,39.8,71,46,30,30.09,29.97,10,0,10,0.62
2013-9-28,76.5,67.8,58.6,69.8,55.8,40.2,94,68,36,30.03,29.91,11,1,11,0.62
2013-9-29,72.9,60.4,52.2,59.0,44.1,26.6,96,63,19,30.09,29.97,6,0,6,0.62
2013-9-30,77.5,62.7,47.7,55.6,47.7,38.3,78,60,42,29.97,29.85,9,0,9,0.62
2013-10-1,83.7,71.3,63.5,64.0,59.7,54.3,92,69,39,29.97,29.88,8,0,8,0.62
2013-10-2,84.0,72.4,64.0,70.8,62.9,55.7,95,76,40,30.03,29.91,15,0,15,0.62
2013-10-3,83.8,72.7,68.0,68.0,64.4,57.5,90,77,48,29.94,29.76,9,1,9,0.62
2013-10-4,87.3,77.1,70.2,68.9,62.6,52.6,93,64,32,29.91,29.85,10,1,10,0.62
2013-10-5,76.1,73.5,72.1,66.0,65.0,62.0,80,75,62,29.91,29.85,8,0,8,0.00
2013-10-7,54.0,52.2,51.3,43.3,42.5,41.7,74,70,63,30.09,30.06,0,0,0,0.00
2013-10-8,75.9,61.7,48.2,46.2,37.9,24.4,84,48,15,30.18,30.06,9,1,9,0.00
2013-10-9,73.6,68.9,50.5,42.4,29.6,23.1,73,25,16,30.15,30.06,6,0,6,0.00
2013-10-10,71.6,71.6,71.6,27.2,27.2,27.2,19,19,19,30.15,29.97,0,0,0,0.00
2013-10-11,71.6,71.6,71.6,27.2,27.2,27.2,19,19,19,30.00,29.85,0,0,0,0.00
2013-10-12,71.6,71.6,71.6,27.2,27.2,27.2,19,19,19,30.21,29.88,0,0,0,0.00
2013-10-13,71.6,71.6,71.6,27.2,27.2,27.2,19,19,19,30.41,30.21,0,0,0,0.00
2013-10-14,71.6,71.6,71.6,27.2,27.2,27.2,19,19,19,30.36,30.00,0,0,0,0.00
2013-10-15,71.6,71.6,71.6,27.2,27.2,27.2,19,19,19,30.00,29.85,0,0,0,0.17
2013-10-16,71.6,71.6,71.6,27.2,27.2,27.2,19,19,19,30.03,29.97,0,0,0,0.00
2013-10-17,71.6,71.6,71.6,27.2,27.2,27.2,19,19,19,30.00,29.88,0,0,0,0.04
2013-10-18,71.6,71.6,71.6,27.2,27.2,27.2,19,19,19,30.06,29.91,0,0,0,0.00
2013-10-19,71.6,71.6,71.6,27.2,27.2,27.2,19,19,19,30.03,29.88,0,0,0,0.00
2013-10-20,71.6,71.6,71.6,27.2,27.2,27.2,19,19,19,29.94,29.76,0,0,0,0.00
2013-10-21,71.6,71.6,71.6,27.2,27.2,27.2,19,19,19,30.06,29.88,0,0,0,0.00
2013-10-22,71.6,71.6,71.6,27.2,27.2,27.2,19,19,19,30.03,29.82,0,0,0,0.00
2013-10-23,71.6,71.6,71.6,27.2,27.2,27.2,19,19,19,30.15,30.03,0,0,0,0.00
2013-10-24,71.6,71.6,71.6,27.2,27.2,27.2,19,19,19,30.39,30.12,0,0,0,0.00
2013-10-25,71.6,71.6,71.6,27.2,27.2,27.2,19,19,19,30.47,30.15,0,0,0,0.00
2013-10-26,71.6,71.6,71.6,27.2,27.2,27.2,19,19,19,30.18,30.03,0,0,0,0.00
2013-10-27,71.6,71.6,71.6,27.2,27.2,27.2,19,19,19,30.15,30.00,0,0,0,0.00
2013-10-28,71.6,71.6,71.6,27.2,27.2,27.2,19,19,19,30.24,30.03,0,0,0,0.00
2013-10-29,71.6,71.6,71.6,27.2,27.2,27.2,19,19,19,30.24,30.06,0,0,0,0.00
2013-10-30,71.6,71.6,71.6,27.2,27.2,27.2,19,19,19,30.06,29.76,0,0,0,0.00
2013-10-31,71.6,71.6,71.6,27.2,27.2,27.2,19,19,19,29.76,29.44,0,0,0,2.20
2013-11-1,71.6,71.6,71.6,27.2,27.2,27.2,19,19,19,29.85,29.59,0,0,0,0.41
2013-11-2,71.6,71.6,71.6,27.2,27.2,27.2,19,19,19,30.18,29.85,0,0,0,0.00
2013-11-3,71.6,71.6,71.6,27.2,27.2,27.2,19,19,19,30.27,30.06,0,0,0,0.00
2013-11-4,71.6,71.6,71.6,27.2,27.2,27.2,19,19,19,30.15,30.03,0,0,0,0.00
2013-11-5,71.6,71.6,71.6,27.2,27.2,27.2,19,19,19,30.21,29.91,0,0,0,0.05
2013-11-6,71.6,71.6,71.6,27.2,27.2,27.2,19,19,19,30.27,29.85,0,0,0,0.54
2013-11-7,71.6,71.6,71.6,27.2,27.2,27.2,19,19,19,30.33,30.27,0,0,0,0.00
2013-11-8,71.6,71.6,71.6,27.2,27.2,27.2,19,19,19,30.33,29.97,0,0,0,0.00
2013-11-9,71.6,71.6,71.6,27.2,27.2,27.2,19,19,19,30.27,29.97,0,0,0,0.00
2013-11-10,71.6,71.6,71.6,27.2,27.2,27.2,19,19,19,30.44,30.24,0,0,0,0.00
2013-11-11,71.6,71.6,71.6,27.2,27.2,27.2,19,19,19,30.59,30.15,0,0,0,0.00
2013-11-12,71.6,66.4,0.0,27.2,25.2,0.0,19,18,19,30.80,30.56,0,0,0,0.00
2013-11-13,0.0,0.0,0.0,0.0,0.0,0.0,0,0,100,30.68,30.21,0,0,0,0.00
2013-11-14,0.0,0.0,0.0,0.0,0.0,0.0,0,0,100,30.21,29.97,0,0,0,0.00
2013-11-15,0.0,0.0,0.0,0.0,0.0,0.0,0,0,100,30.03,29.88,0,0,0,0.00
2013-11-16,0.0,0.0,0.0,0.0,0.0,0.0,0,0,100,29.88,29.56,0,0,0,0.00
2013-11-17,0.0,0.0,0.0,0.0,0.0,0.0,0,0,100,29.97,29.32,0,0,0,0.29
2013-11-18,0.0,0.0,0.0,0.0,0.0,0.0,0,0,100,30.30,29.97,0,0,0,0.00
2013-11-19,0.0,0.0,0.0,0.0,0.0,0.0,0,0,100,30.33,30.15,0,0,0,0.00
2013-11-20,0.0,0.0,0.0,0.0,0.0,0.0,0,0,100,30.18,29.97,0,0,0,0.62
2013-11-21,0.0,0.0,0.0,0.0,0.0,0.0,0,0,100,30.30,30.03,0,0,0,0.25
2013-11-22,0.0,0.0,0.0,0.0,0.0,0.0,0,0,100,30.56,30.27,0,0,0,0.00
2013-11-23,0.0,0.0,0.0,0.0,0.0,0.0,0,0,100,30.74,30.56,0,0,0,0.00
2013-11-24,0.0,0.0,0.0,0.0,0.0,0.0,0,0,100,30.77,30.39,0,0,0,0.00
2013-11-25,0.0,0.0,0.0,0.0,0.0,0.0,0,0,100,30.39,30.15,0,0,0,0.00
2013-11-26,0.0,0.0,0.0,0.0,0.0,0.0,0,0,100,30.30,30.12,0,0,0,0.00
2013-11-27,0.0,0.0,0.0,0.0,0.0,0.0,0,0,100,30.41,30.21,0,0,0,0.00
2013-11-28,0.0,0.0,0.0,0.0,0.0,0.0,0,0,100,30.50,30.18,0,0,0,0.00
2013-11-29,0.0,0.0,0.0,0.0,0.0,0.0,0,0,100,30.59,30.36,0,0,0,0.00
2013-11-30,0.0,0.0,0.0,0.0,0.0,0.0,0,0,100,30.36,30.09,0,0,0,0.00
2013-12-1,0.0,0.0,0.0,0.0,0.0,0.0,0,0,100,30.15,29.97,0,0,0,0.00
2013-12-12,39.6,33.0,24.1,2.9,-0.0,-5.0,32,24,21,30.36,30.21,11,2,11,0.00
2013-12-13,35.6,31.8,23.9,32.9,17.5,-0.1,98,63,24,30.21,29.97,8,0,8,0.04
2013-12-14,33.4,27.1,19.8,32.9,23.6,12.4,98,87,72,30.15,29.91,0,0,0,0.04
2013-12-15,28.6,22.9,15.1,18.0,13.4,9.1,78,67,49,30.18,30.03,0,0,0,0.00
2013-12-16,25.9,22.8,18.7,20.7,15.4,10.5,83,73,60,30.15,30.00,0,0,0,0.00
2013-12-17,39.7,29.8,16.7,25.0,16.3,6.4,87,59,41,30.27,30.15,8,1,8,0.00
2013-12-18,48.0,37.8,16.3,24.8,17.3,5.9,64,44,32,30.24,29.85,10,4,10,0.00
2013-12-19,54.5,48.2,43.2,41.8,32.9,24.8,70,56,41,29.88,29.74,13,2,13,0.00
2013-12-20,50.9,32.5,29.7,40.7,31.1,27.1,98,95,68,29.88,29.74,6,0,6,0.00
2013-12-21,31.5,29.0,28.0,28.4,24.1,22.2,89,82,78,29.85,29.65,8,0,8,0.00
2013-12-22,32.2,27.2,18.0,30.9,21.5,5.2,96,80,55,30.30,29.68,0,0,0,0.00
2013-12-23,18.3,10.8,3.4,7.1,-3.3,-13.6,63,53,43,30.59,30.30,7,0,7,0.00
2013-12-24,21.9,10.7,-2.2,2.9,-7.5,-18.8,47,43,35,30.59,30.30,11,2,11,0.00
2013-12-25,32.7,28.4,21.9,25.2,17.8,2.9,84,65,43,30.30,30.21,9,1,9,0.00
2013-12-26,42.6,31.3,18.9,26.7,18.3,8.6,80,60,41,30.33,30.18,12,1,12,0.00
2013-12-27,51.6,36.6,23.4,32.8,24.2,19.6,94,63,38,30.33,30.18,8,0,8,0.00
2013-12-28,56.3,44.3,34.3,27.5,23.0,18.0,65,44,27,30.18,29.88,9,1,9,0.00
2013-12-30,24.4,24.0,23.5,-3.4,-3.8,-4.7,29,29,27,30.21,30.21,0,0,0,0.00
2013-12-31,38.1,24.3,18.1,6.3,0.1,-4.7,45,35,26,30.39,30.12,8,1,8,0.00
2014-1-1,21.0,18.7,15.1,8.6,3.2,-1.0,70,51,38,30.18,30.09,10,2,10,0.00
2014-1-2,15.1,3.5,0.7,5.8,-16.7,-19.8,66,38,37,30.47,30.18,5,0,5,0.00